LIC2510 BIAR-BIKF

Flight info

Callsign LIC2510
Flight time 0h 34m
Altitude 24000
Route ASKUR1D ASKUR Y193 REKVA/M063F230 DCT DEVUD DEVUD3M
Aircraft B738/M-SDE2E3FGHIRWXY/LB1

Departure

Time 2026-04-26 17:14
Airport Akureyri International Airport (BIAR)

Arrival

Time 2026-04-26 17:48
Airport Keflavik International Airport (BIKF)
Time Latitude Longitude Altitude Speed Heading
2026-04-26 17:00 65.65411 -18.07491 16 ft 0 kts 25°
2026-04-26 17:08 65.65412 -18.07490 16 ft 2 kts 25°
2026-04-26 17:08 65.65421 -18.07476 19 ft 1 kts 37°
2026-04-26 17:08 65.65427 -18.07452 17 ft 6 kts 62°
2026-04-26 17:09 65.65437 -18.07397 17 ft 1 kts 63°
2026-04-26 17:09 65.65452 -18.07338 17 ft 9 kts 55°
2026-04-26 17:09 65.65511 -18.07236 16 ft 8 kts 13°
2026-04-26 17:09 65.65563 -18.07225 19 ft 8 kts
2026-04-26 17:10 65.65629 -18.07227 17 ft 13 kts 358°
2026-04-26 17:10 65.65735 -18.07234 18 ft 18 kts 359°
2026-04-26 17:10 65.65866 -18.07254 17 ft 19 kts 354°
2026-04-26 17:10 65.65988 -18.07284 15 ft 17 kts 354°
2026-04-26 17:11 65.66106 -18.07311 15 ft 17 kts 354°
2026-04-26 17:11 65.66220 -18.07337 17 ft 16 kts 355°
2026-04-26 17:11 65.66328 -18.07358 16 ft 15 kts 357°
2026-04-26 17:11 65.66432 -18.07360 18 ft 15 kts
2026-04-26 17:12 65.66625 -18.07381 17 ft 13 kts 355°
2026-04-26 17:12 65.66712 -18.07426 16 ft 13 kts 345°
2026-04-26 17:13 65.66769 -18.07410 17 ft 2 kts 128°
2026-04-26 17:13 65.66749 -18.07402 17 ft 20 kts 172°
2026-04-26 17:13 65.65199 -18.07095 202 ft 180 kts 174°
2026-04-26 17:14 65.63908 -18.06783 1281 ft 182 kts 174°
2026-04-26 17:14 65.61311 -18.06392 3377 ft 197 kts 182°
2026-04-26 17:14 65.59940 -18.06849 4167 ft 200 kts 194°
2026-04-26 17:15 65.57120 -18.09106 5276 ft 232 kts 200°
2026-04-26 17:15 65.55591 -18.10419 6117 ft 236 kts 199°
2026-04-26 17:15 65.54028 -18.11746 7013 ft 239 kts 199°
2026-04-26 17:16 65.52461 -18.13064 8010 ft 239 kts 199°
2026-04-26 17:16 65.50879 -18.14386 8957 ft 242 kts 199°
2026-04-26 17:16 65.49276 -18.15723 9916 ft 245 kts 198°
2026-04-26 17:16 65.47712 -18.17459 10643 ft 255 kts 213°
2026-04-26 17:17 65.46223 -18.20178 10923 ft 283 kts 217°
2026-04-26 17:17 65.44606 -18.23262 11147 ft 311 kts 217°
2026-04-26 17:17 65.42856 -18.26581 11630 ft 327 kts 217°
2026-04-26 17:17 65.41045 -18.29979 12411 ft 333 kts 217°
2026-04-26 17:18 65.39198 -18.33403 13270 ft 337 kts 216°
2026-04-26 17:18 65.37324 -18.36850 14082 ft 342 kts 216°
2026-04-26 17:18 65.35422 -18.40337 14832 ft 346 kts 216°
2026-04-26 17:18 65.33500 -18.43854 15549 ft 351 kts 216°
2026-04-26 17:19 65.29575 -18.51039 17072 ft 359 kts 216°
2026-04-26 17:19 65.27582 -18.54679 17818 ft 363 kts 216°
2026-04-26 17:19 65.25564 -18.58363 18500 ft 368 kts 216°
2026-04-26 17:20 65.23516 -18.62091 19134 ft 371 kts 216°
2026-04-26 17:20 65.22850 -18.63301 19357 ft 372 kts 216°
2026-04-26 17:20 65.19406 -18.69681 20517 ft 376 kts 221°
2026-04-26 17:20 65.17658 -18.74313 21340 ft 375 kts 229°
2026-04-26 17:21 65.16061 -18.79081 22242 ft 372 kts 230°
2026-04-26 17:21 65.14473 -18.83911 23072 ft 370 kts 230°
2026-04-26 17:21 65.12890 -18.88710 23760 ft 371 kts 230°
2026-04-26 17:21 65.11284 -18.93530 23947 ft 372 kts 229°
2026-04-26 17:22 65.09671 -18.98324 23985 ft 370 kts 229°
2026-04-26 17:22 65.08062 -19.03069 23990 ft 370 kts 229°
2026-04-26 17:22 65.06443 -19.07809 23996 ft 370 kts 229°
2026-04-26 17:22 65.04823 -19.12535 23994 ft 370 kts 229°
2026-04-26 17:23 65.03199 -19.17255 23999 ft 370 kts 229°
2026-04-26 17:23 65.01570 -19.21975 24008 ft 370 kts 228°
2026-04-26 17:23 64.99940 -19.26689 24001 ft 370 kts 228°
2026-04-26 17:23 64.98310 -19.31393 24000 ft 371 kts 229°
2026-04-26 17:24 64.96672 -19.36107 23997 ft 371 kts 229°
2026-04-26 17:24 64.95032 -19.40815 24000 ft 372 kts 228°
2026-04-26 17:24 64.93439 -19.45640 23998 ft 373 kts 232°
2026-04-26 17:24 64.91969 -19.50707 24012 ft 380 kts 234°
2026-04-26 17:25 64.90499 -19.56017 24017 ft 395 kts 235°
2026-04-26 17:25 64.88982 -19.61546 24013 ft 408 kts 235°
2026-04-26 17:25 64.87412 -19.67240 24013 ft 420 kts 234°
2026-04-26 17:25 64.85793 -19.73057 24011 ft 431 kts 234°
2026-04-26 17:26 64.84120 -19.79011 24011 ft 441 kts 234°
2026-04-26 17:26 64.82406 -19.85065 24008 ft 449 kts 234°
2026-04-26 17:26 64.80657 -19.91213 24000 ft 456 kts 234°
2026-04-26 17:26 64.79488 -19.95305 23994 ft 458 kts 235°
2026-04-26 17:27 64.77704 -20.01521 23990 ft 458 kts 235°
2026-04-26 17:27 64.75934 -20.07682 23987 ft 455 kts 235°
2026-04-26 17:27 64.74164 -20.13828 23992 ft 456 kts 234°
2026-04-26 17:27 64.72390 -20.19968 23978 ft 454 kts 234°
2026-04-26 17:28 64.70643 -20.25984 23963 ft 435 kts 234°
2026-04-26 17:28 64.68987 -20.31689 23966 ft 413 kts 234°
2026-04-26 17:28 64.67411 -20.37109 23964 ft 394 kts 234°
2026-04-26 17:28 64.65905 -20.42267 23967 ft 376 kts 234°
2026-04-26 17:29 64.64460 -20.47204 23951 ft 361 kts 233°
2026-04-26 17:29 64.63530 -20.50376 23871 ft 356 kts 234°
2026-04-26 17:29 64.61674 -20.56685 23480 ft 350 kts 233°
2026-04-26 17:29 64.60299 -20.61348 23100 ft 347 kts 236°
2026-04-26 17:30 64.58907 -20.66058 22780 ft 363 kts 236°
2026-04-26 17:30 64.57422 -20.71072 22359 ft 390 kts 236°
2026-04-26 17:30 64.55833 -20.76430 21909 ft 414 kts 235°
2026-04-26 17:30 64.54157 -20.82066 21423 ft 433 kts 235°
2026-04-26 17:31 64.52425 -20.87872 20901 ft 435 kts 235°
2026-04-26 17:31 64.50749 -20.93483 20437 ft 422 kts 234°
2026-04-26 17:31 64.49100 -20.98989 19928 ft 411 kts 234°
2026-04-26 17:31 64.47487 -21.04390 19420 ft 406 kts 235°
2026-04-26 17:32 64.46152 -21.10184 18759 ft 409 kts 245°
2026-04-26 17:32 64.45054 -21.16294 18211 ft 414 kts 246°
2026-04-26 17:32 64.43947 -21.22495 17681 ft 417 kts 245°
2026-04-26 17:32 64.42840 -21.28654 17165 ft 413 kts 245°
2026-04-26 17:33 64.41726 -21.34762 16694 ft 410 kts 245°
2026-04-26 17:33 64.40609 -21.40815 16229 ft 408 kts 245°
2026-04-26 17:33 64.39489 -21.46829 15759 ft 407 kts 245°
2026-04-26 17:34 64.37248 -21.58774 14831 ft 403 kts 244°
2026-04-26 17:34 64.36133 -21.64684 14385 ft 401 kts 244°
2026-04-26 17:34 64.35022 -21.70557 13936 ft 399 kts 244°
2026-04-26 17:34 64.33920 -21.76363 13444 ft 391 kts 244°
2026-04-26 17:35 64.32840 -21.82047 12964 ft 383 kts 244°
2026-04-26 17:35 64.31772 -21.87646 12539 ft 381 kts 244°
2026-04-26 17:35 64.30704 -21.93224 12083 ft 380 kts 244°
2026-04-26 17:35 64.29636 -21.98789 11660 ft 379 kts 244°
2026-04-26 17:36 64.28573 -22.04318 11220 ft 375 kts 243°
2026-04-26 17:36 64.27524 -22.09763 10782 ft 367 kts 243°
2026-04-26 17:36 64.26500 -22.15065 10362 ft 358 kts 243°
2026-04-26 17:36 64.25512 -22.20171 10213 ft 342 kts 243°
2026-04-26 17:37 64.24560 -22.25074 10061 ft 329 kts 242°
2026-04-26 17:37 64.23639 -22.29805 9804 ft 320 kts 242°
2026-04-26 17:37 64.22734 -22.34442 9421 ft 315 kts 242°
2026-04-26 17:38 64.20963 -22.43470 8722 ft 305 kts 242°
2026-04-26 17:38 64.20267 -22.48051 8374 ft 306 kts 256°
2026-04-26 17:38 64.20038 -22.52870 8062 ft 302 kts 261°
2026-04-26 17:38 64.19861 -22.57585 7739 ft 298 kts 261°
2026-04-26 17:39 64.19672 -22.62354 7423 ft 295 kts 260°
2026-04-26 17:39 64.19476 -22.67002 7120 ft 291 kts 260°
2026-04-26 17:39 64.19275 -22.71529 6841 ft 288 kts 260°
2026-04-26 17:39 64.19066 -22.76071 6538 ft 284 kts 259°
2026-04-26 17:40 64.18855 -22.80558 6244 ft 282 kts 260°
2026-04-26 17:40 64.18713 -22.83562 6042 ft 279 kts 259°
2026-04-26 17:40 64.18278 -22.89292 5631 ft 269 kts 241°
2026-04-26 17:40 64.17188 -22.92593 5399 ft 257 kts 216°
2026-04-26 17:41 64.15692 -22.94709 5111 ft 251 kts 203°
2026-04-26 17:41 64.14126 -22.96449 4821 ft 250 kts 202°
2026-04-26 17:41 64.12562 -22.98177 4538 ft 248 kts 202°
2026-04-26 17:41 64.11018 -22.99900 4321 ft 245 kts 202°
2026-04-26 17:42 64.09512 -23.01595 4222 ft 237 kts 202°
2026-04-26 17:42 64.08054 -23.03237 4110 ft 231 kts 202°
2026-04-26 17:42 64.06592 -23.04554 3994 ft 222 kts 185°
2026-04-26 17:42 64.05101 -23.04298 3933 ft 209 kts 166°
2026-04-26 17:43 64.03730 -23.03286 3715 ft 204 kts 158°
2026-04-26 17:43 64.02413 -23.02131 3501 ft 200 kts 158°
2026-04-26 17:43 64.01146 -23.01027 3266 ft 190 kts 159°
2026-04-26 17:43 63.99950 -22.99998 3054 ft 178 kts 158°
2026-04-26 17:44 63.98929 -22.98589 2835 ft 172 kts 131°
2026-04-26 17:44 63.98524 -22.96094 2624 ft 173 kts 95°
2026-04-26 17:44 63.98579 -22.93429 2450 ft 162 kts 97°
2026-04-26 17:44 63.98570 -22.91045 2327 ft 138 kts 99°
2026-04-26 17:45 63.98559 -22.88974 2202 ft 133 kts 100°
2026-04-26 17:45 63.98551 -22.86941 2030 ft 124 kts 99°
2026-04-26 17:45 63.98546 -22.85032 1869 ft 118 kts 101°
2026-04-26 17:45 63.98539 -22.83160 1739 ft 120 kts 100°
2026-04-26 17:46 63.98534 -22.81256 1558 ft 120 kts 99°
2026-04-26 17:46 63.98530 -22.79350 1379 ft 114 kts 99°
2026-04-26 17:46 63.98526 -22.77561 1244 ft 117 kts 98°
2026-04-26 17:46 63.98522 -22.75688 1072 ft 118 kts 98°
2026-04-26 17:47 63.98519 -22.73830 885 ft 117 kts 98°
2026-04-26 17:47 63.98518 -22.72594 793 ft 114 kts 98°
2026-04-26 17:47 63.98513 -22.70217 587 ft 115 kts 96°
2026-04-26 17:47 63.98511 -22.68371 409 ft 117 kts 95°
2026-04-26 17:48 63.98517 -22.66552 305 ft 112 kts 94°
2026-04-26 17:48 63.98508 -22.64893 141 ft 97 kts 95°
2026-04-26 17:48 63.98490 -22.63580 136 ft 64 kts 91°
2026-04-26 17:48 63.98498 -22.62873 139 ft 36 kts 89°
2026-04-26 17:49 63.98506 -22.62269 147 ft 37 kts 87°
2026-04-26 17:49 63.98517 -22.61691 156 ft 35 kts 79°
2026-04-26 17:49 63.98566 -22.61355 159 ft 13 kts 64°
2026-04-26 17:49 63.98610 -22.61186 161 ft 12 kts 41°
2026-04-26 17:50 63.98690 -22.61131 160 ft 12 kts
2026-04-26 17:50 63.98773 -22.61128 161 ft 12 kts
2026-04-26 17:50 63.98854 -22.61128 161 ft 11 kts 359°
2026-04-26 17:50 63.98932 -22.61132 160 ft 11 kts 359°
2026-04-26 17:51 63.99008 -22.61124 161 ft 11 kts
2026-04-26 17:51 63.99082 -22.61119 160 ft 10 kts
2026-04-26 17:51 63.99150 -22.61157 158 ft 10 kts 318°
2026-04-26 17:51 63.99175 -22.61304 154 ft 10 kts 275°
2026-04-26 17:52 63.99175 -22.61459 151 ft 10 kts 269°
2026-04-26 17:52 63.99173 -22.61612 147 ft 10 kts 268°
2026-04-26 17:52 63.99172 -22.61761 144 ft 9 kts 273°
2026-04-26 17:52 63.99173 -22.61907 141 ft 9 kts 269°
2026-04-26 17:53 63.99216 -22.61987 141 ft 9 kts 356°
2026-04-26 17:53 63.99246 -22.62093 141 ft 8 kts 290°
2026-04-26 17:53 63.99279 -22.62187 141 ft 7 kts 315°
2026-04-26 17:54 63.99282 -22.62195 141 ft 0 kts 316°